Time,TemperatureF,DewpointF,PressureIn,WindDirection,WindDirectionDegrees,WindSpeedMPH,WindSpeedGustMPH,Humidity,HourlyPrecipIn,Conditions,Clouds,dailyrainin,SolarRadiationWatts/m^2,SoftwareType,DateUTC
2013-01-17 00:05:00,27.0,22.0,-100.00,WSW,240,4.0,9.0,80,0.00,,,0.06,0.000000,,2013-01-17 05:05:00,
2013-01-17 00:33:00,28.0,23.0,-100.00,WSW,244,5.0,15.0,80,0.00,,,0.06,0.000000,,2013-01-17 05:33:00,
2013-01-17 00:43:00,28.0,23.0,-100.00,WSW,244,5.0,15.0,80,0.00,,,0.06,0.000000,,2013-01-17 05:43:00,
2013-01-17 00:53:00,28.0,23.0,-100.00,WSW,244,5.0,15.0,80,0.00,,,0.06,0.000000,,2013-01-17 05:53:00,
2013-01-17 01:03:00,28.0,23.0,-100.00,WSW,244,5.0,15.0,80,0.00,,,0.06,0.000000,,2013-01-17 06:03:00,
2013-01-17 01:33:00,28.0,23.0,-100.00,WSW,243,5.0,9.0,80,0.00,,,0.06,0.000000,,2013-01-17 06:33:00,
2013-01-17 01:42:00,28.0,23.0,-100.00,WSW,243,5.0,9.0,80,0.00,,,0.06,0.000000,,2013-01-17 06:42:00,
2013-01-17 01:53:00,28.0,23.0,-100.00,WSW,243,5.0,9.0,80,0.00,,,0.06,0.000000,,2013-01-17 06:53:00,
2013-01-17 02:02:00,28.0,23.0,-100.00,WSW,243,5.0,9.0,80,0.00,,,0.06,0.000000,,2013-01-17 07:02:00,
2013-01-17 02:33:00,28.0,23.0,-100.00,WSW,256,5.0,9.0,80,0.00,,,0.06,0.000000,,2013-01-17 07:33:00,
2013-01-17 02:43:00,28.0,23.0,-100.00,WSW,256,5.0,9.0,80,0.00,,,0.06,0.000000,,2013-01-17 07:43:00,
2013-01-17 02:53:00,28.0,23.0,-100.00,WSW,256,5.0,9.0,80,0.00,,,0.06,0.000000,,2013-01-17 07:53:00,
2013-01-17 03:02:00,28.0,23.0,-100.00,WSW,256,5.0,9.0,80,0.00,,,0.06,0.000000,,2013-01-17 08:02:00,
2013-01-17 03:32:00,28.0,22.0,-100.00,West,259,5.0,9.0,79,0.00,,,0.06,0.000000,,2013-01-17 08:32:00,
2013-01-17 03:43:00,28.0,22.0,-100.00,West,259,5.0,9.0,79,0.00,,,0.06,0.000000,,2013-01-17 08:43:00,
2013-01-17 03:53:00,28.0,22.0,-100.00,West,259,5.0,9.0,79,0.00,,,0.06,0.000000,,2013-01-17 08:53:00,
2013-01-17 04:03:00,28.0,22.0,-100.00,West,259,5.0,9.0,79,0.00,,,0.06,0.000000,,2013-01-17 09:03:00,
2013-01-17 04:33:00,28.0,23.0,-100.00,West,259,4.0,7.0,81,0.00,,,0.06,0.000000,,2013-01-17 09:33:00,
2013-01-17 04:43:00,28.0,23.0,-100.00,West,259,4.0,7.0,81,0.00,,,0.06,0.000000,,2013-01-17 09:43:00,
2013-01-17 04:53:00,28.0,23.0,-100.00,West,259,4.0,7.0,81,0.00,,,0.06,0.000000,,2013-01-17 09:53:00,
2013-01-17 05:02:00,28.0,23.0,-100.00,West,259,4.0,7.0,81,0.00,,,0.06,0.000000,,2013-01-17 10:02:00,
2013-01-17 05:33:00,28.0,23.0,-100.00,West,276,4.0,7.0,81,0.00,,,0.06,0.000000,,2013-01-17 10:33:00,
2013-01-17 05:43:00,28.0,23.0,-100.00,West,276,4.0,7.0,81,0.00,,,0.06,0.000000,,2013-01-17 10:43:00,
2013-01-17 05:53:00,28.0,23.0,-100.00,West,276,4.0,7.0,81,0.00,,,0.06,0.000000,,2013-01-17 10:53:00,
2013-01-17 06:03:00,28.0,23.0,-100.00,West,276,4.0,7.0,81,0.00,,,0.06,0.000000,,2013-01-17 11:03:00,
2013-01-17 06:33:00,28.0,23.0,-100.00,WSW,255,5.0,6.0,82,0.00,,,-99.99,0.000000,,2013-01-17 11:33:00,
2013-01-17 06:43:00,28.0,23.0,-100.00,WSW,255,5.0,6.0,82,0.00,,,-99.99,0.000000,,2013-01-17 11:43:00,
2013-01-17 06:53:00,28.0,23.0,-100.00,WSW,255,5.0,6.0,82,0.00,,,-99.99,0.000000,,2013-01-17 11:53:00,
2013-01-17 07:02:00,28.0,23.0,-100.00,WSW,255,5.0,6.0,82,0.00,,,-99.99,0.000000,,2013-01-17 12:02:00,
2013-01-17 07:33:00,28.0,25.0,-100.00,West,260,4.0,9.0,87,0.00,,,0.06,0.000000,,2013-01-17 12:33:00,
2013-01-17 07:43:00,28.0,25.0,-100.00,West,260,4.0,9.0,87,0.00,,,0.06,0.000000,,2013-01-17 12:43:00,
2013-01-17 07:53:00,28.0,25.0,-100.00,West,260,4.0,9.0,87,0.00,,,0.06,0.000000,,2013-01-17 12:53:00,
2013-01-17 08:03:00,28.0,25.0,-100.00,West,260,4.0,9.0,87,0.00,,,0.06,0.000000,,2013-01-17 13:03:00,
2013-01-17 08:33:00,28.0,25.0,-100.00,West,271,3.0,6.0,89,0.00,,,0.06,0.000000,,2013-01-17 13:33:00,
2013-01-17 08:43:00,28.0,25.0,-100.00,West,271,3.0,6.0,89,0.00,,,0.06,0.000000,,2013-01-17 13:43:00,
2013-01-17 08:53:00,28.0,25.0,-100.00,West,271,3.0,6.0,89,0.00,,,0.06,0.000000,,2013-01-17 13:53:00,
2013-01-17 09:03:00,28.0,25.0,-100.00,West,271,3.0,6.0,89,0.00,,,0.06,0.000000,,2013-01-17 14:03:00,
2013-01-17 09:33:00,28.0,25.0,-100.00,WSW,257,3.0,7.0,87,0.00,,,0.06,7.000000,,2013-01-17 14:33:00,
2013-01-17 09:43:00,28.0,25.0,-100.00,WSW,257,3.0,7.0,87,0.00,,,0.06,7.000000,,2013-01-17 14:43:00,
2013-01-17 09:53:00,28.0,25.0,-100.00,WSW,257,3.0,7.0,87,0.00,,,0.06,7.000000,,2013-01-17 14:53:00,
2013-01-17 10:03:00,28.0,25.0,-100.00,WSW,257,3.0,7.0,87,0.00,,,0.06,7.000000,,2013-01-17 15:03:00,
2013-01-17 10:33:00,30.0,26.0,-100.00,SW,234,4.0,6.0,84,0.00,,,0.06,40.000000,,2013-01-17 15:33:00,
2013-01-17 10:43:00,30.0,26.0,-100.00,SW,234,4.0,6.0,84,0.00,,,0.06,40.000000,,2013-01-17 15:43:00,
2013-01-17 10:53:00,30.0,26.0,-100.00,SW,234,4.0,6.0,84,0.00,,,0.06,40.000000,,2013-01-17 15:53:00,
2013-01-17 11:03:00,30.0,26.0,-100.00,SW,234,4.0,6.0,84,0.00,,,0.06,40.000000,,2013-01-17 16:03:00,
2013-01-17 11:34:00,30.0,25.0,-100.00,WSW,253,4.0,8.0,82,0.00,,,0.06,41.000000,,2013-01-17 16:34:00,
2013-01-17 11:44:00,30.0,25.0,-100.00,WSW,253,4.0,8.0,82,0.00,,,0.06,41.000000,,2013-01-17 16:44:00,
2013-01-17 11:53:00,30.0,25.0,-100.00,WSW,253,4.0,8.0,82,0.00,,,0.06,41.000000,,2013-01-17 16:53:00,
2013-01-17 12:03:00,30.0,25.0,-100.00,WSW,253,4.0,8.0,82,0.00,,,0.06,41.000000,,2013-01-17 17:03:00,
2013-01-17 12:33:00,30.0,25.0,-100.00,WNW,285,3.0,4.0,81,0.00,,,0.06,63.000000,,2013-01-17 17:33:00,
2013-01-17 12:43:00,30.0,25.0,-100.00,WNW,285,3.0,4.0,81,0.00,,,0.06,63.000000,,2013-01-17 17:43:00,
2013-01-17 12:54:00,30.0,25.0,-100.00,WNW,285,3.0,4.0,81,0.00,,,0.06,63.000000,,2013-01-17 17:54:00,
2013-01-17 13:04:00,30.0,25.0,-100.00,WNW,285,3.0,4.0,81,0.00,,,0.06,63.000000,,2013-01-17 18:04:00,
2013-01-17 13:34:00,32.0,23.0,-100.00,West,281,4.0,8.0,69,0.00,,,0.06,129.000000,,2013-01-17 18:34:00,
2013-01-17 13:44:00,32.0,23.0,-100.00,West,281,4.0,8.0,69,0.00,,,0.06,129.000000,,2013-01-17 18:44:00,
2013-01-17 13:54:00,32.0,23.0,-100.00,West,281,4.0,8.0,69,0.00,,,0.06,129.000000,,2013-01-17 18:54:00,
2013-01-17 14:03:00,32.0,23.0,-100.00,West,281,4.0,8.0,69,0.00,,,0.06,129.000000,,2013-01-17 19:03:00,
2013-01-17 14:33:00,32.0,21.0,-100.00,West,279,6.0,13.0,63,0.00,,,0.06,151.000000,,2013-01-17 19:33:00,
2013-01-17 14:43:00,32.0,21.0,-100.00,West,279,6.0,13.0,63,0.00,,,0.06,151.000000,,2013-01-17 19:43:00,
2013-01-17 14:54:00,32.0,21.0,-100.00,West,279,6.0,13.0,63,0.00,,,0.06,151.000000,,2013-01-17 19:54:00,
2013-01-17 15:03:00,32.0,21.0,-100.00,West,279,6.0,13.0,63,0.00,,,0.06,151.000000,,2013-01-17 20:03:00,
2013-01-17 16:34:00,31.0,21.0,-100.00,West,265,2.0,3.0,65,-99.99,,,0.01,58.000000,,2013-01-17 21:34:00,
2013-01-17 16:43:00,31.0,21.0,-100.00,West,265,2.0,3.0,65,-99.99,,,0.01,58.000000,,2013-01-17 21:43:00,
2013-01-17 16:53:00,31.0,21.0,-100.00,West,265,2.0,3.0,65,-99.99,,,0.01,58.000000,,2013-01-17 21:53:00,
2013-01-17 17:04:00,31.0,21.0,-100.00,West,265,2.0,3.0,65,-99.99,,,0.01,58.000000,,2013-01-17 22:04:00,
2013-01-17 17:33:00,30.0,21.0,-100.00,West,272,2.0,3.0,68,0.00,,,0.01,17.000000,,2013-01-17 22:33:00,
2013-01-17 17:43:00,30.0,21.0,-100.00,West,272,2.0,3.0,68,0.00,,,0.01,17.000000,,2013-01-17 22:43:00,
2013-01-17 17:53:00,30.0,21.0,-100.00,West,272,2.0,3.0,68,0.00,,,0.01,17.000000,,2013-01-17 22:53:00,
2013-01-17 18:03:00,30.0,21.0,-100.00,West,272,2.0,3.0,68,0.00,,,0.01,17.000000,,2013-01-17 23:03:00,
2013-01-17 18:33:00,30.0,22.0,-100.00,West,277,3.0,8.0,72,0.00,,,0.00,0.000000,,2013-01-17 23:33:00,
2013-01-17 18:43:00,30.0,22.0,-100.00,West,277,3.0,8.0,72,0.00,,,0.00,0.000000,,2013-01-17 23:43:00,
2013-01-17 18:53:00,30.0,22.0,-100.00,West,277,3.0,8.0,72,0.00,,,0.00,0.000000,,2013-01-17 23:53:00,
2013-01-17 19:03:00,30.0,22.0,-100.00,West,277,3.0,8.0,72,0.00,,,0.00,0.000000,,2013-01-18 00:03:00,
2013-01-17 19:33:00,28.0,22.0,-100.00,West,270,3.0,6.0,79,0.00,,,0.00,0.000000,,2013-01-18 00:33:00,
2013-01-17 19:43:00,28.0,22.0,-100.00,West,270,3.0,6.0,79,0.00,,,0.00,0.000000,,2013-01-18 00:43:00,
2013-01-17 19:53:00,28.0,22.0,-100.00,West,270,3.0,6.0,79,0.00,,,0.00,0.000000,,2013-01-18 00:53:00,
2013-01-17 20:03:00,28.0,22.0,-100.00,West,270,3.0,6.0,79,0.00,,,0.00,0.000000,,2013-01-18 01:03:00,
2013-01-17 20:33:00,28.0,21.0,-100.00,West,279,5.0,8.0,74,0.00,,,0.00,0.000000,,2013-01-18 01:33:00,
2013-01-17 20:43:00,28.0,21.0,-100.00,West,279,5.0,8.0,74,0.00,,,0.00,0.000000,,2013-01-18 01:43:00,
2013-01-17 20:53:00,28.0,21.0,-100.00,West,279,5.0,8.0,74,0.00,,,0.00,0.000000,,2013-01-18 01:53:00,
2013-01-17 21:03:00,28.0,21.0,-100.00,West,279,5.0,8.0,74,0.00,,,0.00,0.000000,,2013-01-18 02:03:00,
2013-01-17 21:33:00,27.0,18.0,-100.00,West,267,4.0,8.0,68,0.00,,,0.00,0.000000,,2013-01-18 02:33:00,
2013-01-17 21:43:00,27.0,18.0,-100.00,West,267,4.0,8.0,68,0.00,,,0.00,0.000000,,2013-01-18 02:43:00,
2013-01-17 21:53:00,27.0,18.0,-100.00,West,267,4.0,8.0,68,0.00,,,0.00,0.000000,,2013-01-18 02:53:00,
2013-01-17 22:02:00,27.0,18.0,-100.00,West,267,4.0,8.0,68,0.00,,,0.00,0.000000,,2013-01-18 03:02:00,
2013-01-17 22:33:00,25.0,18.0,-100.00,West,263,3.0,5.0,73,0.00,,,0.00,0.000000,,2013-01-18 03:33:00,
2013-01-17 22:43:00,25.0,18.0,-100.00,West,263,3.0,5.0,73,0.00,,,0.00,0.000000,,2013-01-18 03:43:00,
2013-01-17 22:53:00,25.0,18.0,-100.00,West,263,3.0,5.0,73,0.00,,,0.00,0.000000,,2013-01-18 03:53:00,
2013-01-17 23:02:00,25.0,18.0,-100.00,West,263,3.0,5.0,73,0.00,,,0.00,0.000000,,2013-01-18 04:02:00,
2013-01-17 23:33:00,25.0,21.0,-100.00,West,268,5.0,9.0,86,0.01,,,0.01,0.000000,,2013-01-18 04:33:00,
2013-01-17 23:43:00,25.0,21.0,-100.00,West,268,5.0,9.0,86,0.01,,,0.01,0.000000,,2013-01-18 04:43:00,
2013-01-17 23:53:00,25.0,21.0,-100.00,West,268,5.0,9.0,86,0.01,,,0.01,0.000000,,2013-01-18 04:53:00,